Grant County, OR

8:57 AM PDT on August 17, 2017 (GMT -0700)
Grant County Regional

Weather History for KGCD - August, 2014

Change the Weather History Date:

Tuesday, August 5, 2014

  Actual Average (KBNO) Record (KBNO)
Temperature  
Mean Temperature 76 °F -  
Max Temperature 93 °F 85 °F 100 °F (1990)
Min Temperature 60 °F 44 °F 31 °F (2002)
Cooling Degree Days 11    
Growing Degree Days 26 (Base 50)    
Moisture  
Dew Point 39 °F    
Average Humidity 27    
Maximum Humidity 53    
Minimum Humidity 12    
Precipitation  
Precipitation 0.00 in - - ()
Sea Level Pressure  
Sea Level Pressure 30.04 in    
Wind  
Wind Speed 6 mph (NNW)    
Max Wind Speed 17 mph    
Max Gust Speed 25 mph    
Visibility 10 miles    
Events      
Averages and records for this station are not official NWS values.
T = Trace of Precipitation, MM = Missing Value Source: NWS Daily Summary

Daily Weather History Graph

Daily Weather History Graph

Search for Another Location

Airport or City:

Trip Planner

Search our weather history database for the weather conditions in past years. The results will help you decide how hot, cold, wet, or windy it might be!

Date:

Astronomy

Aug. 05, 2014 Rise Set
Actual Time 5:47 AM PDT 8:15 PM PDT
Civil Twilight 5:14 AM PDT 8:48 PM PDT
Nautical Twilight 4:33 AM PDT 9:28 PM PDT
Astronomical Twilight 3:47 AM PDT 10:14 PM PDT
Moon 3:36 PM PDT (8/5) 12:38 AM PDT (8/5)
Length of Visible Light 15h 33m
Length of Day
14h 27m
Waxing Gibbous, 69% of the Moon is Illuminated
Aug 5
Waxing Gibbous
Aug 10
Full
Aug 17
Last Quarter
Aug 25
New
Sep 2
First Quarter

Hourly Weather History & Observations

Time (PDT) Temp. Dew Point Humidity Pressure Visibility Wind Dir Wind Speed Gust Speed Precip Events Conditions
12:15 AM 70.5 °F 44.2 °F 39% 30.02 in 10.0 mi East 6.9 mph - N/A   Clear
12:35 AM 69.1 °F 46.2 °F 44% 30.02 in 10.0 mi ESE 6.9 mph - N/A   Clear
12:55 AM 68.2 °F 46.2 °F 45% 30.02 in 10.0 mi ESE 8.1 mph - N/A   Clear
1:15 AM 67.5 °F 46.4 °F 47% 30.02 in 10.0 mi East 10.4 mph - N/A   Clear
1:35 AM 69.3 °F 44.2 °F 40% 30.02 in 10.0 mi ESE 9.2 mph - N/A   Clear
1:55 AM 68.2 °F 45.3 °F 44% 30.02 in 10.0 mi ESE 6.9 mph - N/A   Clear
2:15 AM 66.7 °F 44.8 °F 45% 30.03 in 10.0 mi SE 9.2 mph - N/A   Clear
2:35 AM 66.9 °F 44.6 °F 45% 30.02 in 10.0 mi ESE 8.1 mph - N/A   Clear
2:55 AM 64.2 °F 45.1 °F 50% 30.03 in 10.0 mi East 9.2 mph - N/A   Clear
3:15 AM 64.4 °F 43.7 °F 47% 30.04 in 10.0 mi ESE 8.1 mph - N/A   Clear
3:35 AM 64.8 °F 43.0 °F 45% 30.03 in 10.0 mi ESE 9.2 mph - N/A   Clear
3:55 AM 61.0 °F 43.9 °F 53% 30.04 in 10.0 mi ESE 4.6 mph - N/A   Clear
4:15 AM 61.5 °F 43.9 °F 52% 30.04 in 10.0 mi Calm Calm - N/A   Clear
4:35 AM 61.0 °F 43.9 °F 53% 30.05 in 10.0 mi Calm Calm - N/A   Clear
4:55 AM 63.3 °F 40.8 °F 44% 30.05 in 10.0 mi WSW 3.5 mph - N/A   Clear
5:15 AM 63.3 °F 40.1 °F 43% 30.05 in 10.0 mi Calm Calm - N/A   Clear
5:35 AM 61.5 °F 41.5 °F 48% 30.06 in 10.0 mi Calm Calm - N/A   Clear
5:55 AM 61.9 °F 41.5 °F 47% 30.07 in 10.0 mi Calm Calm - N/A   Clear
6:15 AM 61.7 °F 41.9 °F 48% 30.07 in 7.0 mi East 4.6 mph - N/A   Clear
6:35 AM 61.0 °F 42.6 °F 51% 30.08 in 5.0 mi ESE 8.1 mph - N/A   Haze
6:55 AM 60.8 °F 41.9 °F 50% 30.08 in 5.0 mi ESE 8.1 mph - N/A   Haze
7:15 AM 61.5 °F 41.9 °F 49% 30.09 in 10.0 mi East 6.9 mph - N/A   Clear
7:35 AM 62.2 °F 42.1 °F 48% 30.09 in 7.0 mi East 8.1 mph - N/A   Clear
7:55 AM 63.9 °F 42.1 °F 45% 30.10 in 10.0 mi East 9.2 mph - N/A   Clear
8:15 AM 66.4 °F 42.3 °F 41% 30.10 in 10.0 mi East 6.9 mph - N/A   Clear
8:35 AM 68.9 °F 42.8 °F 39% 30.10 in 10.0 mi East 4.6 mph - N/A   Clear
8:55 AM 71.8 °F 43.9 °F 37% 30.10 in 10.0 mi East 3.5 mph - N/A   Clear
9:15 AM 74.1 °F 45.5 °F 36% 30.10 in 7.0 mi Calm Calm - N/A   Clear
9:35 AM 75.9 °F 46.0 °F 35% 30.10 in 10.0 mi West 3.5 mph - N/A   Clear
9:55 AM 77.0 °F 45.9 °F 33% 30.09 in 10.0 mi West 6.9 mph - N/A   Clear
10:15 AM 78.3 °F 45.7 °F 32% 30.09 in 10.0 mi WNW 5.8 mph - N/A   Clear
10:35 AM 79.0 °F 46.2 °F 31% 30.09 in 10.0 mi NW 3.5 mph - N/A   Clear
10:55 AM 80.2 °F 46.4 °F 30% 30.08 in 10.0 mi WSW 4.6 mph - N/A   Clear
11:15 AM 81.1 °F 46.0 °F 29% 30.08 in 10.0 mi NNW 3.5 mph - N/A   Clear
11:35 AM 82.9 °F 46.2 °F 28% 30.08 in 10.0 mi Calm Calm - N/A   Clear
11:46 AM 82.4 °F 46.4 °F 28% 30.07 in 10.0 mi WNW 3.5 mph - N/A   Clear
11:55 AM 84.0 °F 46.4 °F 27% 30.07 in 10.0 mi Calm Calm - N/A   Clear
12:06 PM 84.2 °F 46.4 °F 27% 30.07 in 10.0 mi WNW 4.6 mph - N/A   Clear
12:15 PM 84.6 °F 45.7 °F 26% 30.07 in 10.0 mi Calm Calm - N/A   Clear
12:25 PM 84.2 °F 44.6 °F 25% 30.07 in 10.0 mi Calm Calm - N/A   Clear
12:35 PM 86.4 °F 45.7 °F 24% 30.06 in 10.0 mi NNW 3.5 mph - N/A   Clear
12:55 PM 87.3 °F 44.4 °F 22% 30.05 in 10.0 mi Calm Calm - N/A   Clear
1:05 PM 87.8 °F 44.6 °F 22% 30.05 in 10.0 mi SW 3.5 mph - N/A   Clear
1:15 PM 89.2 °F 42.6 °F 20% 30.05 in 10.0 mi South 4.6 mph - N/A   Clear
1:35 PM 89.4 °F 39.7 °F 17% 30.04 in 10.0 mi East 3.5 mph - N/A   Clear
1:55 PM 89.8 °F 39.2 °F 17% 30.03 in 10.0 mi West 6.9 mph - N/A   Clear
2:15 PM 90.9 °F 37.9 °F 16% 30.03 in 10.0 mi West 5.8 mph - N/A   Clear
2:26 PM 91.4 °F 37.4 °F 15% 30.03 in 10.0 mi North 4.6 mph - N/A   Clear
2:35 PM 89.8 °F 36.7 °F 15% 30.02 in 10.0 mi West 4.6 mph - N/A   Clear
2:46 PM 91.4 °F 37.4 °F 15% 30.02 in 10.0 mi West 10.4 mph - N/A   Clear
2:55 PM 91.9 °F 36.3 °F 14% 30.02 in 10.0 mi WNW 9.2 mph - N/A   Clear
3:15 PM 91.6 °F 34.9 °F 13% 30.01 in 10.0 mi WNW 5.8 mph 9.2 mph N/A   Clear
3:26 PM 91.4 °F 35.6 °F 14% 30.01 in 10.0 mi West 3.5 mph - N/A   Clear
3:35 PM 92.1 °F 35.1 °F 13% 30.01 in 7.0 mi WSW 8.1 mph - N/A   Clear
3:46 PM 91.4 °F 35.6 °F 14% 30.00 in 10.0 mi West 8.1 mph - N/A   Clear
3:55 PM 91.9 °F 34.9 °F 13% 30.00 in 10.0 mi SW 5.8 mph - N/A   Clear
4:15 PM 90.3 °F 34.7 °F 14% 30.00 in 10.0 mi NE 6.9 mph - N/A   Clear
4:26 PM 91.4 °F 33.8 °F 13% 30.00 in 10.0 mi North 3.5 mph - N/A   Clear
4:35 PM 91.4 °F 33.8 °F 13% 30.00 in 10.0 mi North 6.9 mph - N/A   Clear
4:46 PM 91.4 °F 33.8 °F 13% 30.00 in 10.0 mi ENE 5.8 mph - N/A   Clear
4:55 PM 92.3 °F 32.2 °F 12% 29.99 in 10.0 mi NE 8.1 mph - N/A   Clear
5:06 PM 91.4 °F 32.0 °F 12% 29.99 in 10.0 mi NW 11.5 mph - N/A   Clear
5:15 PM 92.3 °F 32.2 °F 12% 29.99 in 10.0 mi NW 10.4 mph - N/A   Clear
5:25 PM 91.4 °F 33.8 °F 13% 29.99 in 10.0 mi NW 5.8 mph 19.6 mph N/A   Clear
5:35 PM 91.9 °F 32.5 °F 12% 29.99 in 10.0 mi WSW 3.5 mph - N/A   Clear
5:55 PM 92.3 °F 33.1 °F 12% 29.99 in 10.0 mi WNW 9.2 mph 17.3 mph N/A   Clear
6:06 PM 91.4 °F 35.6 °F 14% 29.99 in 10.0 mi North 10.4 mph 17.3 mph N/A   Clear
6:15 PM 91.8 °F 37.2 °F 15% 29.99 in 10.0 mi NNE 11.5 mph - N/A   Clear
6:26 PM 91.4 °F 35.6 °F 14% 29.99 in 10.0 mi North 10.4 mph 25.3 mph N/A   Clear
6:35 PM 89.8 °F 36.3 °F 15% 30.00 in 10.0 mi North 13.8 mph 19.6 mph N/A   Clear
6:46 PM 89.6 °F 35.6 °F 15% 30.00 in 10.0 mi North 11.5 mph - N/A   Clear
6:55 PM 88.7 °F 35.8 °F 15% 30.00 in 10.0 mi North 11.5 mph - N/A   Clear
7:15 PM 87.6 °F 36.3 °F 16% 30.01 in 10.0 mi NW 17.3 mph - N/A   Clear
7:35 PM 86.0 °F 35.8 °F 17% 30.01 in 10.0 mi NNW 12.7 mph 20.7 mph N/A   Clear
7:45 PM 86.0 °F 35.6 °F 17% 30.01 in 10.0 mi NNW 13.8 mph 20.7 mph N/A   Clear
7:55 PM 85.1 °F 35.6 °F 17% 30.01 in 10.0 mi NNW 11.5 mph 20.7 mph N/A   Clear
8:06 PM 84.2 °F 35.6 °F 18% 30.01 in 10.0 mi North 12.7 mph 18.4 mph N/A   Clear
8:15 PM 83.8 °F 36.0 °F 18% 30.01 in 10.0 mi North 9.2 mph - N/A   Clear
8:35 PM 82.0 °F 36.5 °F 20% 30.03 in 10.0 mi North 5.8 mph - N/A   Clear
8:46 PM 80.6 °F 37.4 °F 21% 30.03 in 10.0 mi NNE 3.5 mph - N/A   Clear
8:55 PM 80.8 °F 36.9 °F 21% 30.04 in 10.0 mi SW 3.5 mph - N/A   Clear
9:06 PM 78.8 °F 37.4 °F 23% 30.04 in 10.0 mi SSW 5.8 mph - N/A   Clear
9:15 PM 80.1 °F 37.0 °F 21% 30.04 in 10.0 mi Calm Calm - N/A   Clear
9:26 PM 80.6 °F 37.4 °F 21% 30.05 in 10.0 mi West 3.5 mph - N/A   Clear
9:35 PM 81.7 °F 36.7 °F 20% 30.05 in 10.0 mi Calm Calm - N/A   Clear
9:46 PM 80.6 °F 37.4 °F 21% 30.05 in 10.0 mi NNW 3.5 mph - N/A   Clear
9:55 PM 78.6 °F 37.4 °F 23% 30.05 in 10.0 mi NW 8.1 mph - N/A   Clear
10:06 PM 78.8 °F 37.4 °F 23% 30.06 in 10.0 mi NNW 9.2 mph - N/A   Clear
10:15 PM 78.3 °F 37.4 °F 23% 30.06 in 10.0 mi WNW 5.8 mph - N/A   Clear
10:26 PM 75.2 °F 37.4 °F 25% 30.06 in 10.0 mi NW 9.2 mph - N/A   Clear
10:35 PM 76.8 °F 36.1 °F 23% 30.06 in 10.0 mi NW 8.1 mph - N/A   Clear
10:46 PM 75.2 °F 35.6 °F 24% 30.06 in 10.0 mi NW 6.9 mph - N/A   Clear
10:55 PM 75.6 °F 35.1 °F 23% 30.06 in 10.0 mi NW 5.8 mph - N/A   Clear
11:07 PM 73.4 °F 35.6 °F 25% 30.07 in 10.0 mi WNW 5.8 mph - N/A   Clear
11:15 PM 73.9 °F 35.4 °F 25% 30.07 in 10.0 mi West 8.1 mph - N/A   Clear
11:26 PM 73.4 °F 32.0 °F 22% 30.07 in 10.0 mi West 9.2 mph - N/A   Clear
11:35 PM 74.1 °F 30.2 °F 20% 30.08 in 10.0 mi West 11.5 mph - N/A   Clear
11:55 PM 73.2 °F 28.8 °F 19% 30.08 in 10.0 mi West 12.7 mph - N/A   Clear